Regional Weather Roundup
Issued by NWS Charleston, WV

Home | Current Version | Previous Version | Text Only | Print | Product List | Glossary On
Versions: 1 2 3 4 5 6 7 8 9 10 11 12 13 14 15 16 17 18 19 20 21 22 23 24 25 26 27 28 29 30 31 32 33 34 35 36 37 38 39 40 41 42 43 44 45 46 47 48 49 50
000
ASUS41 KRLX 290810
RWRRLX
West Virginia Regional Weather Roundup
National Weather Service Charleston WV
400 AM EDT MON MAY 29 2017

Note: "fair" indicates few or no clouds below 12,000 feet with no
significant weather and/or obstructions to visibility.

WVZ003-290900-
Northern Panhandle of West Virginia

CITY           SKY/WX    TMP DP  RH WIND       PRES   REMARKS
WHEELING       LGT RAIN  59  57  93 VRB3      29.79F
$$

WVZ009-290900-
Northwest West Virginia

CITY           SKY/WX    TMP DP  RH WIND       PRES   REMARKS
PARKERSBURG    CLOUDY    66  62  87 W7        29.86R
$$

WVZ006-290900-
Western West Virginia

CITY           SKY/WX    TMP DP  RH WIND       PRES   REMARKS
HUNTINGTON     MOCLDY    66  62  87 SW5       29.87R
$$

WVZ015-290900-
West Central West Virginia

CITY           SKY/WX    TMP DP  RH WIND       PRES   REMARKS
CHARLESTON     CLOUDY    68  61  78 SW8       29.87R
$$

WVZ022-031-290900-
North Central West Virginia

CITY           SKY/WX    TMP DP  RH WIND       PRES   REMARKS
CLARKSBURG     CLOUDY    66  62  87 SW10      29.84R
MORGANTOWN     CLOUDY    66  62  87 SW7       29.83R
$$

WVZ025-035-042-045-290900-
Southern West Virginia

CITY           SKY/WX    TMP DP  RH WIND       PRES   REMARKS
BECKLEY        CLOUDY    63  58  83 W5        29.94S
LOGAN          CLOUDY    66  61  82 SW6       29.91S
BLUEFIELD      CLOUDY    61  56  83 W6        29.97S
LEWISBURG      CLOUDY    64  58  82 W6        29.92R
$$

WVZ047-290900-
Northern Mountains of West Virginia

CITY           SKY/WX    TMP DP  RH WIND       PRES   REMARKS
ELKINS         LGT RAIN  64  59  83 S6        29.88S
$$

WVZ052-290900-
Eastern Panhandle of West Virginia

CITY           SKY/WX    TMP DP  RH WIND       PRES   REMARKS
MARTINSBURG    LGT RAIN  63  62  97 CALM      29.79F FOG
PETERSBURG     CLEAR     64  62  94 CALM      29.82S
$$



USA.gov is the U.S. government's official web portal to all federal, state and local government web resources and services.